This demonstration page uses our WeatherBlox Daily Observations layout. Learn more.

Hourly Observations for September 19, 2019

Temp ( °F °C ) Dew Point ( °F °C ) Humidity (%) Winds ( mph kmh ) Pressure ( in mb ) Visibility ( mi km ) Precip ( " mm )
12:53 am 00:53 Clear 61 16.1 54 12.2 78 78 Calm 30.09 1019 10 16.09344 0 0
1:53 am 01:53 Clear 58 14.4 54 12.2 87 87 Calm 30.09 1019 10 16.09344 0 0
2:53 am 02:53 Clear 62 16.7 53 11.7 73 73 E 7 11 30.09 1019 10 16.09344 0 0
3:53 am 03:53 Clear 61 16.1 54 12.2 78 78 ENE 3 6 30.09 1019 10 16.09344 0 0
4:53 am 04:53 Clear 58 14.4 54 12.2 87 87 Calm 30.09 1019 10 16.09344 0 0
5:53 am 05:53 Clear 57 13.9 54 12.2 90 90 Calm 30.09 1019 10 16.09344 0 0
6:53 am 06:53 Clear 57 13.9 54 12.2 90 90 Calm 30.09 1019 10 16.09344 0 0
7:53 am 07:53 Sunny 57 13.9 55 12.8 93 93 Calm 30.09 1019 10 16.09344 0 0
8:53 am 08:53 Sunny 64 17.8 55 12.8 73 73 ENE 3 6 30.12 1020 10 16.09344 0 0
9:53 am 09:53 Sunny 69 20.6 58 14.4 68 68 VRB 5 7 30.12 1020 10 16.09344 0 0
10:53 am 10:53 Sunny 73 22.8 60 15.6 64 64 E 5 7 30.12 1020 10 16.09344 0 0
11:53 am 11:53 Sunny 78 25.6 63 17.2 60 60 E 5 7 30.12 1020 10 16.09344 0 0
12:53 pm 12:53 Sunny 80 26.7 64 17.8 58 58 VRB 5 7 30.12 1020 10 16.09344 0 0
1:53 pm 13:53 Sunny 83 28.3 65 18.3 55 55 VRB 3 6 30.09 1019 10 16.09344 0 0
2:53 pm 14:53 Sunny 85 29.4 66 18.9 53 53 Calm 30.06 1018 10 16.09344 0 0
3:53 pm 15:53 Mostly Sunny 86 30 66 18.9 51 51 VRB 5 7 30.06 1018 10 16.09344 0 0
4:53 pm 16:53 Mostly Sunny 86 30 65 18.3 49 49 S 3 6 30.03 1017 10 16.09344 0 0
5:53 pm 17:53 Mostly Sunny 86 30 65 18.3 49 49 Calm 30.03 1017 10 16.09344 0 0
6:53 pm 18:53 Sunny 83 28.3 66 18.9 57 57 VRB 3 6 30.06 1018 10 16.09344 0 0
7:53 pm 19:53 Clear 79 26.1 67 19.4 67 67 ESE 6 9 30.06 1018 10 16.09344 0 0
8:53 pm 20:53 Clear 78 25.6 67 19.4 69 69 VRB 3 6 30.06 1018 10 16.09344 0 0
9:53 pm 21:53 Mostly Clear 78 25.6 66 18.9 67 67 VRB 5 7 30.06 1018 10 16.09344 0 0
10:53 pm 22:53 Mostly Clear 76 24.4 66 18.9 72 72 Calm 30.06 1018 10 16.09344 0 0
11:53 pm 23:53 Clear 70 21.1 66 18.9 87 87 E 3 6 30.09 1019 10 16.09344 0 0

Powered by AerisWeather